Regional Weather Roundup
Issued by NWS

Home | Current Version | Previous Version | Text Only | Print | Product List | Glossary On
Versions: 1 2 3 4 5 6 7 8 9 10 11 12 13 14 15 16 17 18 19 20 21 22 23 24 25 26 27 28 29 30 31 32 33 34 35 36 37 38 39 40 41 42 43 44 45 46 47 48 49 50
000
ASCA42 TJSJ 202311
RWRPR
PUERTO RICO/U.S. VIRGIN ISLANDS HOURLY WEATHER ROUNDUP
NATIONAL WEATHER SERVICE SAN JUAN PR
700 PM AST MON OCT 20 2014

PRZ001-004-210000-
PUERTO RICO

CITY           SKY/WX    TMP DP  RH WIND       PRES   REMARKS
SAN JUAN LMM   PTCLDY    82  75  78 E7        29.93S
AGUADILLA      PTCLDY    81  73  78 E9        29.94R
CEIBA          PTCLDY    79  73  83 NE5       29.95R
$$

PRZ006-007-210000-
U.S. VIRGIN ISLANDS

CITY           SKY/WX    TMP DP  RH WIND       PRES   REMARKS
CHRISTIANSTED  CLEAR     77  72  83 N5        29.93R
$$

HOURLY WEATHER ROUNDUP FOR THE NEWS MEDIA

CITY           SKY/WX    TMP DP  RH WIND       PRES   REMARKS
MIAMI          CLOUDY    74  72  93 SE6G17    29.96R
ORLANDO        MOCLDY    79  69  71 E12       29.96R
NEW YORK       MOCLDY    58  40  51 S10       29.99S
NEWARK         MOCLDY    56  37  49 S8        29.97S
CHICAGO        MOCLDY    56  44  64 NE7       29.93R
HARTFORD       MOCLDY    50  39  66 S3        30.01R
BOSTON         MOCLDY    54  33  45 SW9       29.99R
DALLAS         PTCLDY    80  59  48 E6        30.00F
PHILADELPHIA   MOCLDY    58  44  60 S5        29.98R



USA.gov is the U.S. government's official web portal to all federal, state and local government web resources and services.